Regional Weather Roundup
Issued by NWS

Home | Current Version | Previous Version | Graphics & Text | Print | Product List | Glossary On
Versions: 1 2 3 4 5 6 7 8 9 10 11 12 13 14 15 16 17 18 19 20 21 22 23 24 25 26 27 28 29 30 31 32 33 34 35 36 37 38 39 40 41 42 43 44 45 46 47 48 49 50
000
ASUS43 KLOT 071103
RWRIL

ILLINOIS REGIONAL WEATHER ROUNDUP
NATIONAL WEATHER SERVICE CHICAGO/ROMEOVILLE IL
500 AM CST SUN FEB 07 2016

NOTE: "FAIR" INDICATES FEW OR NO CLOUDS BELOW 12,000 FEET WITH NO
SIGNIFICANT WEATHER AND/OR OBSTRUCTIONS TO VISIBILITY.

* THESE STATIONS ARE NOT UNDER NWS QUALITY CONTROL. THEY ALSO MAY NOT
  REPORT WEATHER SUCH AS PRECIPITATION OR FOG.

ILZ001-002-007-009-015-016-024-071200-
NORTHWEST ILLINOIS

CITY           SKY/WX    TMP DP  RH WIND       PRES   REMARKS
MOLINE         CLOUDY    39  28  64 SW14      29.86F WCI  31
STERLING*      PTCLDY    37  28  70 SW5       29.84F WCI  34
$$

ILZ003-004-008-010-011-017-018-071200-
NORTH CENTRAL ILLINOIS

CITY           SKY/WX    TMP DP  RH WIND       PRES   REMARKS
ROCKFORD       MOCLDY    36  30  79 S12       29.87F WCI  28
FREEPORT*      CLOUDY    35  30  83 S17       29.85F WCI  24
DE KALB*       MOCLDY    33  30  90 S12       29.88F WCI  24
$$

ILZ005-006-012>014-019>023-071200-
NORTHEAST ILLINOIS

CITY           SKY/WX    TMP DP  RH WIND       PRES   REMARKS
CHICAGO-OHARE  CLOUDY    38  29  70 SW16      29.89F WCI  29
CHICAGO-MIDWAY CLOUDY    39  28  64 S12       29.91F WCI  32
AURORA         CLOUDY    37  29  72 S10       29.90F WCI  30
LANSING*       PTCLDY    36  30  79 S10       29.94F WCI  28
WAUKEGAN       CLOUDY    36  29  75 SW15      29.86F WCI  27
DUPAGE AIRPORT CLOUDY    36  28  73 SW13      29.89F WCI  27
WHEELING       CLOUDY    38  29  70 S13       29.90F WCI  30
NORTHERLY ISL    N/A     40  28  63 S10         N/A
$$

LMZ740>746-071200-
SOUTHERN LAKE MICHIGAN

STATION/POSITION SKY/WX   TEMP    WIND        PRES    VSBY  WAVE
                          AIR SEA DIR/SP/G                  HT/PER
                          (F)     (DEG/KT/KT) (MB)    (MI)  (FT/S)
HARRISON CRIB              39     200/ 17/ 19   N/A
BURNHAM HARBOR             40     180/ 13/ 15   N/A
CALUMET HARBOR             38     180/  6/  9 1013.8F
BURNS HARBOR               38     200/ 14/ 18 1015.2F
MICHIGAN CITY              38     150/ 14/ 17   N/A
$$

ILZ025>027-034>036-040-047-049-050-058-095>099-071200-
WEST-CENTRAL ILLINOIS

CITY           SKY/WX    TMP DP  RH WIND       PRES   REMARKS
QUINCY         PTCLDY    38  28  67 SW17      29.95F WCI  28
MACOMB*        PTCLDY    38  30  71 SW13      29.95F WCI  30
$$

ILZ028>032-037-038-041>044-048-051>054-059>061-071200-
CENTRAL ILLINOIS

CITY           SKY/WX    TMP DP  RH WIND       PRES   REMARKS
BLOOMINGTON    MOCLDY    36  32  85 SW15      29.97F WCI  27
DECATUR        CLOUDY    38  27  64 S15       30.01F WCI  29
PEORIA         CLOUDY    36  28  73 S9        29.95F WCI  29
LINCOLN*       PTCLDY    37  32  82 S7        29.99F WCI  31
SPRINGFIELD    CLOUDY    39  29  67 S13       30.00F WCI  31
TAYLORVILLE    NOT AVBL
$$

ILZ033-039-045-046-055>057-062-063-071200-
EAST-CENTRAL ILLINOIS

CITY           SKY/WX    TMP DP  RH WIND       PRES   REMARKS
CHAMPAIGN      PTCLDY    35  28  75 S14       30.01F WCI  26
MATTOON        CLOUDY    38  24  57 S10       30.05F WCI  31
$$

ILZ079-100>102-071200-
SOUTHWEST ILLINOIS

CITY           SKY/WX    TMP DP  RH WIND       PRES   REMARKS
ALTON          CLOUDY    37  24  59 S12       30.06F WCI  29
BELLEVILLE     CLOUDY    36  23  58 S7        30.08F WCI  30
CAHOKIA*       CLOUDY    43  20  39 S8        30.08F
SPARTA*        PTCLDY    37  22  54 S7        30.12F WCI  31
$$

ILZ064>066-069>071-074>076-080>082-084>086-088>090-092>094-071200-
SOUTH-CENTRAL ILLINOIS

CITY           SKY/WX    TMP DP  RH WIND       PRES   REMARKS
CARBONDALE     PTCLDY    38  20  48 SW8       30.15F WCI  32
MARION         CLOUDY    41  23  48 SW6       30.15F
MT. VERNON     CLOUDY    34  21  60 SW6       30.13F WCI  29
CENTRALIA*     CLOUDY    38  26  61 SW9       30.10F WCI  31
SALEM*         PTCLDY    40  24  53 S10       30.10F
$$

ILZ067-068-072-073-078-083-087-091-071200-
SOUTHEAST ILLINOIS

CITY           SKY/WX    TMP DP  RH WIND       PRES   REMARKS
LAWRENCEVILLE  CLOUDY    31  24  75 S3        30.13F
HARRISBURG*    CLOUDY    33  24  69 CALM      30.16F
ROBINSON*      PTCLDY    34  24  69 SW8       30.12F WCI  27
CARMI*         PTCLDY    36  24  62 SW9       30.14F WCI  29
$$

ABBREVIATIONS USED IN REMARKS
   TC - TEMPERATURE IN CELSIUS
  WCI - WIND CHILL INDEX
   HX - HEAT INDEX
  VSB - VISIBILITY
$$




USA.gov is the U.S. government's official web portal to all federal, state and local government web resources and services.